�搅�E���B���j�^�v������
Date,Time,�搅(cps),���B(cps),���J
2023/09/17,00:00,7.0,-,��
2023/09/17,00:10,7.0,-,��
2023/09/17,00:20,6.8,-,��
2023/09/17,00:30,6.8,-,��
2023/09/17,00:40,6.8,-,��
2023/09/17,00:50,6.7,-,��
2023/09/17,01:00,6.7,-,��
2023/09/17,01:10,6.8,-,��
2023/09/17,01:20,6.8,-,��
2023/09/17,01:30,6.7,-,��
2023/09/17,01:40,6.7,-,��
2023/09/17,01:50,6.6,-,��
2023/09/17,02:00,6.7,-,��
2023/09/17,02:10,6.8,-,��
2023/09/17,02:20,6.7,-,��
2023/09/17,02:30,6.6,-,��
2023/09/17,02:40,6.8,-,��
2023/09/17,02:50,6.8,-,��
2023/09/17,03:00,6.7,-,��
2023/09/17,03:10,6.7,-,��
2023/09/17,03:20,6.7,-,��
2023/09/17,03:30,6.9,-,��
2023/09/17,03:40,6.6,-,��
2023/09/17,03:50,6.7,-,��
2023/09/17,04:00,6.6,-,��
2023/09/17,04:10,6.8,-,��
2023/09/17,04:20,6.8,-,��
2023/09/17,04:30,6.6,-,��
2023/09/17,04:40,6.6,-,��
2023/09/17,04:50,6.7,-,��
2023/09/17,05:00,6.7,-,��
2023/09/17,05:10,6.7,-,��
2023/09/17,05:20,6.6,-,��
2023/09/17,05:30,6.6,-,��
2023/09/17,05:40,6.5,-,��
2023/09/17,05:50,6.6,-,��
2023/09/17,06:00,6.6,-,��
2023/09/17,06:10,6.7,-,��
2023/09/17,06:20,6.6,-,��
2023/09/17,06:30,6.6,-,��
2023/09/17,06:40,6.8,-,��
2023/09/17,06:50,6.5,-,��
2023/09/17,07:00,6.5,-,��
2023/09/17,07:10,6.6,-,��
2023/09/17,07:20,6.5,-,��
2023/09/17,07:30,6.5,-,��
2023/09/17,07:40,6.5,-,��
2023/09/17,07:50,6.5,-,��
2023/09/17,08:00,6.6,-,��
2023/09/17,08:10,6.6,-,��
2023/09/17,08:20,6.7,-,��
2023/09/17,08:30,6.5,-,��
2023/09/17,08:40,6.5,-,��
2023/09/17,08:50,6.5,-,��
2023/09/17,09:00,6.5,-,��
2023/09/17,09:10,6.7,-,��
2023/09/17,09:20,6.6,-,��
2023/09/17,09:30,6.6,-,��
2023/09/17,09:40,6.5,-,��
2023/09/17,09:50,6.5,-,��
2023/09/17,10:00,6.3,-,��
2023/09/17,10:10,6.5,-,��
2023/09/17,10:20,6.6,-,��
2023/09/17,10:30,6.7,-,��
2023/09/17,10:40,6.5,-,��
2023/09/17,10:50,6.7,-,��
2023/09/17,11:00,6.6,-,��
2023/09/17,11:10,6.6,-,��
2023/09/17,11:20,6.7,-,��
2023/09/17,11:30,6.6,-,��
2023/09/17,11:40,6.7,-,��
2023/09/17,11:50,6.4,-,��
2023/09/17,12:00,6.6,-,��
2023/09/17,12:10,6.5,-,��
2023/09/17,12:20,6.7,-,��
2023/09/17,12:30,6.6,-,��
2023/09/17,12:40,6.7,-,��
2023/09/17,12:50,6.7,-,��
2023/09/17,13:00,6.8,-,��
2023/09/17,13:10,6.7,-,��
2023/09/17,13:20,6.7,-,��
2023/09/17,13:30,6.6,-,��
2023/09/17,13:40,6.8,-,��
2023/09/17,13:50,7.0,-,��
2023/09/17,14:00,6.9,-,��
2023/09/17,14:10,7.0,-,��
2023/09/17,14:20,6.9,-,��
2023/09/17,14:30,7.1,-,��
2023/09/17,14:40,7.3,-,��
2023/09/17,14:50,7.0,-,��
2023/09/17,15:00,7.1,-,��
2023/09/17,15:10,7.1,-,��
2023/09/17,15:20,7.2,-,��
2023/09/17,15:30,7.1,-,��
2023/09/17,15:40,7.1,-,��
2023/09/17,15:50,7.3,-,��
2023/09/17,16:00,7.2,-,��
2023/09/17,16:10,7.1,-,��
2023/09/17,16:20,6.9,-,��
2023/09/17,16:30,7.1,-,��
2023/09/17,16:40,7.3,-,��
2023/09/17,16:50,7.2,-,��
2023/09/17,17:00,7.3,-,��
2023/09/17,17:10,7.2,-,��
2023/09/17,17:20,7.0,-,��
2023/09/17,17:30,7.0,-,��
2023/09/17,17:40,6.9,-,��
2023/09/17,17:50,7.0,-,��
2023/09/17,18:00,7.0,-,��
2023/09/17,18:10,7.0,-,��
2023/09/17,18:20,6.9,-,��
2023/09/17,18:30,6.9,-,��
2023/09/17,18:40,7.0,-,��
2023/09/17,18:50,6.8,-,��
2023/09/17,19:00,6.8,-,��
2023/09/17,19:10,6.9,-,��
2023/09/17,19:20,6.8,-,��
2023/09/17,19:30,7.0,-,��
2023/09/17,19:40,6.8,-,��
2023/09/17,19:50,6.8,-,��
2023/09/17,20:00,6.8,-,��
2023/09/17,20:10,6.8,-,��
2023/09/17,20:20,6.8,-,��
2023/09/17,20:30,6.9,-,��
2023/09/17,20:40,6.9,-,��
2023/09/17,20:50,6.7,-,��
2023/09/17,21:00,6.8,-,��
2023/09/17,21:10,6.6,-,��
2023/09/17,21:20,7.0,-,��
2023/09/17,21:30,6.7,-,��
2023/09/17,21:40,6.6,-,��
2023/09/17,21:50,6.8,-,��
2023/09/17,22:00,6.7,-,��
2023/09/17,22:10,6.6,-,��
2023/09/17,22:20,6.5,-,��
2023/09/17,22:30,6.4,-,��
2023/09/17,22:40,6.7,-,��
2023/09/17,22:50,6.6,-,��
2023/09/17,23:00,6.7,-,��
2023/09/17,23:10,6.5,-,��
2023/09/17,23:20,6.6,-,��
2023/09/17,23:30,6.7,-,��
2023/09/17,23:40,6.7,-,��
2023/09/17,23:50,6.4,-,��
